Regional Weather Roundup
Issued by NWS

Home | Current Version | Previous Version | Text Only | Print | Product List | Glossary Off
Versions: 1 2 3 4 5 6 7 8 9 10 11 12 13 14 15 16 17 18 19 20 21 22 23 24 25 26 27 28 29 30 31 32 33 34 35 36 37 38 39 40 41 42 43 44 45 46 47 48 49 50

000
ASUS45 KABQ 010610
RWRNM
WEATHER ROUNDUP FOR NEW MEXICO
NATIONAL WEATHER SERVICE ALBUQUERQUE NM
1200 AM MDT FRI AUG 01 2014

NOTE: "FAIR" MEANS FEW OR NO CLOUDS BELOW 12,000 FEET AGL WITH NO
       SIGNIFICANT WEATHER OR OBSTRUCTIONS TO VISION.

      THIS PRODUCT IS RELEASED AS TWO VERSIONS.  ONE VERSION NEAR
      THE TOP OF THE HOUR CONTAINING PRELIMINARY DATA FROM ALBUQUERQUE
      AND OTHER STATIONS.  A FINAL VERSION WITH ADDITIONAL DATA IS
      ISSUED ABOUT 10 MINUTES AFTER THE HOUR.

NMZ501-503-504-510>518-010700-
NORTHWEST PLATEAU/NORTHCENTRAL MOUNTAINS

CITY           SKY/WX    TMP DP  RH WIND       PRES   REMARKS
FARMINGTON     CLEAR     70  53  54 E8        30.22R
6HR MIN TEMP:  70; 6HR MAX TEMP:  86;

LOS ALAMOS     MOCLDY    55  55 100 W3        30.40S
SANTA FE       MOCLDY    58  56  93 E7        30.35R
6HR MIN TEMP:  58; 6HR MAX TEMP:  76; 6HR PCP:  0.17;

TAOS           CLOUDY    54  48  82 SE5       30.40S
ANGEL FIRE     MOCLDY    52  50  94 CALM      30.48R

$$
NMZ402-403-502-505>509-010700-
WESTCENTRAL MOUNTAINS/SOUTHWEST MOUNTAINS

CITY           SKY/WX    TMP DP  RH WIND       PRES   REMARKS
GALLUP         CLOUDY    61  55  81 S5        30.32R
6HR MIN TEMP:  61; 6HR MAX TEMP:  71; 6HR PCP: TRACE;

SILVER CITY    CLOUDY    66  63  88 E6        30.27F

$$
NMZ407-409-411-412-010700-
SOUTHERN DESERTS

CITY           SKY/WX    TMP DP  RH WIND       PRES   REMARKS
LORDSBURG      CLOUDY    72  57  60 SE8       30.19R
DEMING         LGT RAIN  67  65  93 NW12      30.17F
6HR MIN TEMP:  67; 6HR MAX TEMP:  91; 6HR PCP:  0.27;

LAS CRUCES     CLOUDY    72  60  65 NW9G32    30.21R
HOLLOMAN AFB   LGT RAIN  66  66 100 N23G30    30.18R
ALAMOGORDO     HVY RAIN  66  63  88 NW14G22   30.20R VSB 1/2
T OR C         CLOUDY    64  61  90 N16       30.26R
6HR MIN TEMP:  64; 6HR MAX TEMP:  85; 6HR PCP:  0.19;


$$
NMZ519>523-010700-
CENTRAL VALLEYS/CENTRAL HIGHLANDS

CITY           SKY/WX    TMP DP  RH WIND       PRES   REMARKS
ALBUQUERQUE    CLOUDY    67  52  58 E17       30.28R
6HR MIN TEMP:  65; 6HR MAX TEMP:  80; 6HR PCP:  0.03;

DOUBLE EAGLE   CLOUDY    62  56  81 SW7       30.31S
MORIARTY ARPT  CLOUDY    58  54  84 SW3       30.38R
CLINES CORNERS CLOUDY    55  54  96 SE9       30.38R
6HR MIN TEMP:  53; 6HR MAX TEMP:  71; 6HR PCP:  0.62;

BELEN          FAIR      64  57  80 SW12      30.28R
6HR MIN TEMP:  64; 6HR MAX TEMP:  75; 6HR PCP:  0.02;

SOCORRO        DRIZZLE   65  58  77 SW6       30.28F
6HR MIN TEMP:  63; 6HR MAX TEMP:  85; 6HR PCP:  0.48;


$$
NMZ524>526-539-540-010700-
SOUTHCENTRAL MOUNTAINS

CITY           SKY/WX    TMP DP  RH WIND       PRES   REMARKS
RUIDOSO        TSTM      55  55 100 N15G26    30.42R

$$
NMZ527>531-010700-
NORTHEAST HIGHLANDS/NORTHEAST PLAINS

CITY           SKY/WX    TMP DP  RH WIND       PRES   REMARKS
LAS VEGAS      CLOUDY    54  51  90 SE3       30.40R
6HR MIN TEMP:  54; 6HR MAX TEMP:  59; 6HR PCP:  0.58;

RATON          CLOUDY    59  58  96 NE3       30.36R
6HR MIN TEMP:  59; 6HR MAX TEMP:  61; 6HR PCP: TRACE;

CLAYTON        CLOUDY    65  56  72 S5        30.30R
6HR MIN TEMP:  65; 6HR MAX TEMP:  72;


$$
NMZ532>537-010700-
EASTCENTRAL PLAINS

CITY           SKY/WX    TMP DP  RH WIND       PRES   REMARKS
TUCUMCARI      CLOUDY    72  55  55 E3        30.22S
6HR MIN TEMP:  71; 6HR MAX TEMP:  80;

CANNON AFB     CLOUDY    68  53  59 E10       30.25S
6HR MIN TEMP:  68; 6HR MAX TEMP:  79;

CLOVIS AIRPORT NOT AVBL

$$
NMZ028-029-538-010700-
SOUTHEAST PLAINS

CITY           SKY/WX    TMP DP  RH WIND       PRES   REMARKS
ROSWELL        CLOUDY    73  64  73 E3        30.18R
6HR MIN TEMP:  73; 6HR MAX TEMP:  81;

ARTESIA        CLOUDY    72  66  83 NE3       30.17S
CARLSBAD       CLOUDY    74  67  78 N5        30.15S
6HR MIN TEMP:  74; 6HR MAX TEMP:  80;

HOBBS          MOCLDY    73  54  49 NE7       30.20S


$$


USA.gov is the U.S. government's official web portal to all federal, state and local government web resources and services.